Wind_Speed
20 19 19 19 20 20 20 20 20 19 19 19 19 20 21 21 22 22 23 22 22 22 22 22 22 21 20 18 17 17 18 18 19 19 19 19 19 18 17 16 15 14 14 15 16 18 19 21 22 22 22 22 23 24 25 23 21 22 26 29 29 28
18 18 19 20 20 20 20 20 19 19 19 19 20 20 20 20 21 22 22 21 21 21 21 21 22 22 20 19 17 17 17 18 18 19 19 20 20 19 18 17 15 13 14 15 16 17 19 20 22 23 23 22 23 24 25 25 22 22 25 29 30 29
15 17 19 20 20 19 18 18 19 19 19 19 19 20 20 20 21 21 21 21 20 21 21 20 21 21 20 20 18 18 18 18 19 19 19 20 19 17 16 16 14 13 14 15 16 17 18 20 21 23 23 23 23 25 26 25 24 23 24 28 30 30
16 17 17 17 16 16 17 18 18 19 19 19 19 19 20 20 20 21 22 21 21 22 21 21 20 20 19 20 20 19 18 18 19 19 19 18 16 15 15 14 13 13 14 15 16 17 17 19 22 23 24 25 25 26 26 26 25 24 24 27 30 31
16 15 15 14 14 15 16 17 18 18 19 19 19 20 20 20 21 21 21 21 21 21 21 20 19 19 19 20 20 19 17 17 18 18 18 17 16 15 14 13 12 13 13 14 15 15 16 18 21 23 26 27 27 28 28 27 27 26 25 27 30 32
13 12 13 14 14 15 15 16 17 18 19 19 19 20 21 22 22 21 20 21 21 20 19 18 18 17 18 18 18 17 16 16 17 16 16 16 16 16 14 13 13 13 13 14 14 15 17 18 19 20 23 26 28 29 29 29 28 27 26 27 30 32
12 12 12 13 14 15 15 16 17 18 20 19 19 20 21 21 21 21 20 21 21 20 18 17 16 15 15 15 16 15 15 14 15 14 13 14 15 15 14 14 14 14 14 15 16 16 18 19 18 17 18 21 24 26 28 28 29 28 28 29 29 31
12 12 12 13 14 15 16 17 18 19 19 19 19 20 21 20 19 20 21 21 21 20 18 16 15 15 15 15 15 14 14 13 13 12 12 12 14 15 16 16 16 16 16 17 18 18 19 19 19 18 18 19 20 22 24 26 29 30 30 31 30 30
12 12 12 13 15 16 17 17 18 19 19 19 19 19 19 19 18 19 20 21 20 19 18 17 16 16 16 17 16 14 13 12 11 12 12 12 12 14 15 15 16 17 17 18 19 19 20 20 20 19 19 19 18 19 21 23 28 30 32 34 33 30
12 13 12 13 14 15 16 17 18 18 18 18 19 19 18 18 18 18 20 21 19 18 17 17 17 17 16 15 15 14 13 12 11 12 12 12 12 12 12 13 15 16 18 19 19 19 20 21 21 20 20 19 18 19 18 20 26 31 33 36 35 30
12 14 14 14 14 15 16 17 17 18 17 17 17 17 16 17 17 17 19 19 16 16 16 15 16 17 14 13 14 14 13 13 12 11 11 12 14 15 15 15 15 16 18 19 19 19 20 21 21 21 20 20 20 19 18 18 22 29 33 36 35 31
13 15 16 15 15 15 15 16 17 18 18 18 17 16 16 16 16 16 17 17 15 16 17 16 16 15 14 13 14 14 13 12 11 10 11 12 14 16 16 16 16 16 16 17 18 19 20 20 20 20 20 20 20 18 17 17 20 25 31 35 35 32
15 15 16 15 15 14 15 16 16 17 18 18 18 18 17 17 16 16 17 17 17 18 18 17 15 13 12 11 11 12 12 11 11 11 12 13 13 14 16 17 17 16 15 15 17 18 18 18 19 19 19 19 19 19 18 18 19 22 29 34 35 33
18 17 17 16 15 14 13 14 16 17 18 18 19 19 19 19 17 17 17 16 16 18 18 17 15 12 10 9 9 10 11 12 12 12 13 13 13 14 15 17 17 16 16 15 15 15 14 14 16 17 18 17 17 18 19 19 20 21 26 32 34 34
19 20 19 17 16 15 14 14 15 17 18 19 20 20 21 21 20 18 18 16 17 18 18 18 16 12 9 8 9 10 12 14 14 14 13 13 12 12 13 15 16 16 16 15 15 15 14 14 14 15 16 18 17 17 19 20 22 23 25 28 33 35
18 19 19 17 16 15 15 15 15 15 17 18 19 21 21 22 22 20 20 19 19 19 18 17 17 14 11 10 11 12 13 14 14 14 13 13 12 12 13 15 16 16 15 15 15 16 16 15 15 15 16 18 18 18 19 19 19 21 24 26 30 34
15 16 17 16 15 15 15 15 14 14 15 16 17 19 20 21 22 22 21 21 21 20 17 17 16 13 11 12 13 13 14 14 14 14 13 12 13 13 14 15 15 15 15 14 15 16 17 16 16 17 17 18 18 19 19 18 17 18 21 24 27 31
14 15 16 15 13 14 14 14 15 15 15 15 16 17 18 20 22 22 22 22 22 21 19 17 16 14 12 13 15 15 15 15 14 13 13 12 13 13 13 14 14 14 14 14 15 17 18 17 17 17 17 17 18 19 20 19 18 17 18 20 23 27
15 16 16 14 13 13 14 14 15 16 15 15 15 17 17 19 21 22 22 22 22 22 21 21 20 18 16 15 16 16 16 15 15 14 13 13 13 13 13 13 14 14 14 14 14 16 17 17 16 16 17 17 17 19 20 19 18 18 18 19 21 25
15 16 16 13 11 11 13 15 16 16 16 16 16 17 18 19 20 21 21 21 21 22 21 21 21 21 19 18 18 18 17 16 16 14 14 14 14 14 13 13 14 14 14 15 14 13 13 14 14 15 16 17 17 18 19 19 18 18 19 20 22 24
16 16 16 13 10 9 11 13 15 16 17 18 17 17 18 18 19 20 20 20 20 21 21 22 21 21 20 19 19 19 18 17 17 16 15 14 14 14 14 14 14 15 15 15 14 13 13 13 13 14 15 15 17 17 17 17 17 18 20 21 22 23
16 17 16 13 9 7 7 9 12 14 16 18 18 19 18 18 18 18 18 18 18 19 20 21 22 21 21 21 20 20 19 18 18 17 16 15 15 15 15 15 15 15 15 15 15 14 13 13 13 14 15 15 15 15 15 16 17 19 20 22 23 24
17 17 16 12 8 6 6 8 11 13 14 16 17 19 19 19 18 18 18 18 17 18 19 20 20 21 21 21 21 20 20 19 18 18 16 16 16 16 16 16 16 16 16 16 15 14 14 14 14 15 16 15 15 15 16 17 18 20 21 23 23 24
18 19 17 12 8 7 6 8 12 14 15 16 17 17 19 19 19 19 18 18 18 18 18 18 19 19 20 20 20 20 20 19 18 18 17 16 16 17 17 17 17 16 17 16 16 16 16 16 16 16 17 16 16 18 19 20 21 22 23 24 24 24
20 21 18 13 8 7 6 8 12 14 15 17 17 17 18 19 19 20 19 19 19 19 18 18 18 18 18 19 19 19 19 18 18 18 17 17 17 17 17 17 17 17 17 17 17 17 17 17 17 17 18 18 19 20 21 21 22 23 23 24 24 24
22 21 18 14 9 7 7 8 12 14 14 15 17 17 18 19 20 20 21 20 19 19 19 19 19 18 18 18 18 18 18 18 18 18 18 17 17 18 18 18 18 18 18 18 18 18 18 18 18 18 18 19 19 20 21 22 22 22 22 23 24 23
22 19 17 15 12 10 8 9 12 15 15 15 15 16 16 17 19 20 21 21 20 20 20 19 19 19 18 18 18 18 18 18 18 18 18 18 18 18 18 18 19 19 19 19 19 19 19 19 19 19 19 19 20 20 21 22 22 22 22 22 23 22
22 19 16 15 15 14 12 10 13 15 16 16 15 16 16 16 17 19 20 20 20 20 20 20 20 19 19 18 18 18 18 17 17 18 18 19 19 19 19 19 19 19 19 19 19 19 19 19 20 20 19 20 20 20 20 20 21 21 21 22 22 22
24 25 21 17 17 19 18 14 14 17 17 17 16 16 16 17 17 18 18 19 19 20 20 20 20 19 19 18 18 18 17 17 17 17 18 18 19 19 19 19 19 19 19 19 18 18 19 19 19 19 19 20 20 19 19 19 19 20 21 21 21 21
24 30 32 27 24 24 24 20 17 18 19 18 17 16 16 17 17 18 18 18 18 19 19 19 19 19 18 18 18 17 17 17 17 17 17 17 17 18 18 19 19 19 18 18 18 18 18 18 18 18 19 19 19 19 19 19 19 19 20 20 21 21
23 30 38 36 32 31 30 25 20 20 21 20 17 16 16 16 17 17 18 18 18 18 19 19 18 18 17 17 17 17 17 17 16 16 16 16 16 16 16 17 17 17 17 17 17 17 16 17 17 17 17 18 18 18 19 19 18 19 19 20 20 21
25 28 35 37 36 36 34 27 22 20 21 21 19 16 15 15 15 16 17 17 17 18 18 18 17 17 16 16 16 16 16 16 15 15 15 15 14 14 14 14 15 15 15 15 15 15 15 16 16 17 16 16 17 17 17 17 17 17 18 19 20 20
28 29 32 34 35 37 34 26 21 20 21 20 18 16 15 14 14 14 15 15 16 16 16 16 16 15 15 15 15 15 15 15 15 14 13 13 12 12 12 11 12 12 13 13 13 13 14 14 15 16 16 15 15 15 15 16 15 16 16 17 18 18
31 32 32 32 32 34 32 25 21 20 20 19 17 17 15 13 12 12 12 13 14 14 14 14 14 14 15 15 15 15 14 14 14 13 13 12 11 11 10 9 9 9 10 10 10 11 12 13 13 14 14 14 14 14 14 14 14 14 14 15 16 16
31 32 34 33 32 30 28 24 21 20 20 18 16 16 15 13 11 10 9 10 11 12 13 13 13 14 14 15 15 15 15 14 14 13 13 12 12 11 10 9 8 8 8 9 9 9 10 11 12 12 12 12 12 12 12 12 12 12 12 13 13 14
26 27 28 29 28 28 28 26 20 17 18 17 15 15 15 12 10 8 7 9 10 11 12 12 13 13 14 14 15 15 15 15 14 14 13 13 12 12 11 10 9 9 8 8 9 9 9 9 10 11 11 11 11 11 10 10 11 11 11 11 11 12
27 27 27 26 25 26 30 28 20 16 17 17 15 14 14 12 10 8 7 9 11 12 12 12 12 12 12 12 12 13 13 14 14 14 14 14 13 13 13 12 11 11 10 9 9 9 9 9 10 10 11 11 11 10 10 10 10 9 10 10 11 11
Wind_Direction
271 272 272 270 270 271 272 274 275 275 275 274 272 274 277 279 280 280 281 283 284 284 281 278 273 269 266 260 256 254 255 257 259 259 258 258 259 258 257 257 254 249 242 239 240 240 240 240 241 241 240 240 241 239 233 228 227 221 213 211 213 217
271 271 271 271 272 272 270 271 271 271 273 273 272 274 278 279 280 280 280 282 284 284 283 278 273 269 266 260 253 252 253 256 258 261 261 260 259 258 255 254 253 249 244 239 240 242 244 243 243 243 242 241 242 241 235 228 226 226 220 215 214 217
270 269 268 270 270 268 267 267 268 271 273 273 274 277 279 279 277 277 277 279 282 282 281 275 269 267 266 262 255 251 252 255 257 260 261 260 258 255 254 254 253 249 245 240 238 241 246 249 248 247 245 243 241 240 236 229 224 226 225 220 218 217
273 270 267 268 267 266 265 266 270 272 274 274 276 277 278 278 276 275 274 278 283 283 280 274 268 265 265 261 257 252 251 253 256 259 260 259 256 252 252 253 252 248 245 241 237 238 245 251 252 251 249 245 241 241 240 233 225 225 227 225 222 220
273 269 267 265 265 265 265 267 270 269 271 272 272 273 274 275 275 274 274 279 285 285 281 273 268 265 259 255 254 252 250 251 252 255 259 260 259 253 247 246 246 245 246 245 241 240 245 252 253 251 250 247 242 242 244 238 228 225 226 227 225 222
269 272 274 270 267 266 268 271 270 268 270 270 271 272 274 274 273 273 275 280 282 281 278 270 265 262 257 253 251 252 252 252 252 253 257 261 261 256 246 239 239 241 246 252 251 248 248 254 256 253 252 250 246 245 245 242 232 226 225 228 229 227
272 279 282 276 272 269 270 270 269 270 270 270 271 274 277 276 272 271 273 278 278 276 275 270 264 258 254 251 246 247 249 251 253 252 253 256 258 258 253 243 239 240 246 253 255 254 253 255 257 259 257 255 254 251 249 245 235 227 225 228 232 232
286 286 283 277 273 271 269 267 268 269 271 272 273 277 281 278 274 271 271 275 277 273 272 272 266 256 252 248 242 243 246 247 250 254 253 249 251 256 255 249 245 245 248 251 253 255 256 255 254 255 257 257 259 257 254 249 238 229 225 227 230 232
293 293 288 282 277 275 273 271 272 272 273 275 277 280 281 279 276 271 269 271 274 272 270 271 265 258 255 249 244 244 244 246 249 252 249 246 248 249 250 253 255 255 253 251 252 254 255 256 254 252 254 255 258 259 260 255 242 231 226 227 228 229
293 299 296 292 286 284 281 278 277 277 277 278 280 281 281 279 273 271 272 270 270 270 269 266 262 260 256 247 244 243 241 243 246 247 244 244 245 244 248 257 262 263 261 256 254 254 255 255 255 253 251 250 252 255 259 258 247 235 228 228 229 230
293 297 295 295 291 288 285 280 277 276 277 281 283 284 283 279 272 273 276 274 273 270 267 263 263 262 256 246 242 242 243 244 245 248 248 247 246 248 254 258 259 261 262 260 259 258 255 254 255 254 253 251 250 253 255 255 249 239 232 229 229 231
294 295 295 297 294 293 292 290 285 279 277 280 285 289 289 287 284 283 281 280 279 273 268 263 263 264 257 246 241 242 247 253 258 262 263 261 254 252 255 257 258 259 258 260 262 262 260 259 259 256 254 253 252 253 254 254 249 241 235 231 230 231
295 295 298 296 293 294 298 302 300 293 285 281 284 286 289 292 294 292 290 286 280 279 280 272 265 263 255 247 251 257 260 269 279 280 278 275 267 258 257 259 261 261 260 263 265 265 264 264 262 257 251 252 254 254 253 252 248 241 237 233 231 232
301 302 300 292 286 284 290 298 300 298 292 285 282 283 287 292 294 296 300 296 286 286 285 278 269 260 251 248 266 283 285 287 289 288 286 283 276 268 262 261 262 264 265 268 266 267 270 268 267 263 256 256 258 257 254 253 247 240 236 233 232 233
307 308 303 296 291 285 285 288 292 295 293 291 287 286 288 292 295 296 299 298 293 291 287 285 281 272 270 266 269 283 291 296 298 297 294 289 285 278 270 267 267 269 272 272 269 269 273 273 273 273 266 261 260 257 256 257 253 242 233 230 230 232
304 306 301 296 292 290 289 286 287 289 291 294 293 293 291 291 294 294 294 294 293 294 292 292 290 282 285 287 282 285 290 299 304 303 300 296 292 286 281 276 274 276 277 276 272 270 272 272 274 275 272 266 263 259 258 260 259 248 237 230 227 229
298 299 295 292 290 289 289 285 284 282 284 289 293 296 296 294 293 291 291 291 292 293 289 287 284 274 276 285 287 289 293 299 303 302 301 298 295 290 285 282 280 279 278 277 271 268 269 271 272 274 274 269 264 262 260 260 259 251 242 234 229 228
291 290 287 287 289 290 289 288 286 282 279 281 284 289 292 292 291 290 290 288 288 290 288 287 284 276 276 282 282 286 292 296 298 296 295 293 290 288 285 283 283 279 277 275 270 268 270 271 273 274 273 269 264 262 261 259 256 251 246 241 236 233
285 284 283 284 289 294 293 291 289 287 284 279 277 278 280 282 284 287 290 289 288 290 291 291 290 289 288 283 280 283 289 293 294 293 291 288 286 285 285 286 285 282 278 274 272 275 274 272 273 274 273 271 266 263 262 261 257 254 251 248 244 242
280 280 279 281 290 295 295 294 293 293 291 286 280 278 279 280 281 284 288 290 290 290 290 289 289 290 288 283 279 281 286 290 291 290 289 287 287 288 290 291 289 285 280 274 273 279 280 275 273 275 276 274 270 265 262 261 260 259 256 253 249 249
275 275 273 274 281 289 297 301 301 298 295 290 285 283 284 285 285 285 287 288 287 286 286 286 285 284 283 281 279 279 283 286 287 287 287 287 288 290 292 293 291 286 281 276 274 277 280 277 275 277 281 280 274 264 259 259 261 261 260 258 255 254
270 270 268 269 274 282 291 296 295 293 292 289 284 282 283 284 285 285 287 288 286 285 283 282 282 281 280 279 279 280 282 284 285 285 286 287 288 290 291 291 288 284 280 276 275 276 278 277 277 279 282 285 279 264 257 261 263 261 262 262 261 259
266 267 265 265 271 274 274 276 277 276 277 279 279 279 280 280 281 282 284 286 286 285 283 281 280 280 280 279 279 280 281 283 284 284 285 286 287 287 287 287 285 282 281 280 279 278 278 278 278 280 282 284 279 268 266 270 270 266 264 264 264 263
271 272 268 265 271 277 273 275 275 271 268 271 273 273 276 276 277 278 279 282 284 285 285 283 281 280 280 280 280 280 281 283 283 284 284 283 283 283 283 283 282 281 280 280 279 276 276 277 277 279 281 282 278 275 274 275 274 271 267 265 264 265
277 277 275 275 281 288 288 287 287 283 275 274 273 271 271 272 273 274 274 276 280 282 284 284 283 282 282 283 283 283 283 283 283 283 282 280 279 279 279 279 278 278 277 277 276 275 275 275 275 277 278 279 277 276 276 276 275 273 270 267 266 267
277 275 277 283 289 291 292 294 295 294 288 282 280 275 270 268 268 269 270 271 274 278 281 283 283 283 283 283 283 283 282 282 282 281 279 277 276 275 275 275 275 275 274 273 273 273 274 274 274 274 274 275 274 275 275 274 274 273 272 268 266 267
274 267 272 281 289 295 290 292 299 299 296 292 287 283 277 271 268 266 266 267 270 273 277 279 280 279 279 279 279 279 280 280 279 278 277 276 275 274 271 270 270 270 271 271 271 271 271 272 272 272 272 272 271 271 271 270 271 271 270 267 265 264
269 258 267 277 286 298 297 294 303 304 301 300 296 291 285 277 272 269 267 266 267 271 274 276 277 277 277 277 278 279 279 279 278 276 275 275 274 272 270 267 265 265 265 266 267 267 267 268 268 269 270 270 270 271 270 269 269 268 266 264 263 261
268 257 263 280 290 299 301 298 305 309 307 303 298 291 285 279 275 272 270 268 268 270 272 275 276 276 277 277 279 280 280 280 279 276 274 272 271 270 268 266 264 262 261 261 262 262 263 264 265 266 267 268 269 268 268 268 267 265 264 262 261 258
273 259 259 274 289 298 301 300 302 308 307 301 294 288 282 278 275 273 272 270 269 270 272 273 274 275 276 277 279 281 282 282 280 278 275 272 270 267 265 264 263 262 260 260 261 261 261 262 264 265 266 267 267 267 267 266 264 263 262 260 258 255
274 262 258 267 281 291 295 295 297 303 303 297 291 285 280 276 273 272 272 272 271 271 272 272 273 273 274 276 278 280 282 282 280 279 277 274 272 268 266 264 262 262 261 261 262 262 262 262 263 265 266 266 266 265 266 265 263 260 259 257 255 253
278 273 266 270 279 284 285 285 290 297 297 293 287 282 277 274 272 271 271 272 272 271 271 272 273 275 276 276 277 277 277 277 276 275 274 274 273 271 269 266 264 264 263 261 261 262 262 262 263 265 266 267 266 266 265 264 263 261 258 257 256 254
280 276 273 273 276 278 275 274 283 293 293 288 282 279 274 271 270 270 271 273 274 275 274 274 276 278 280 280 279 278 276 275 275 275 275 274 274 273 271 268 265 264 264 263 263 262 263 263 263 266 269 270 270 269 268 267 265 262 259 258 257 257
273 270 269 269 272 273 266 264 276 287 288 282 275 273 271 268 268 268 273 276 278 281 280 281 281 282 284 285 284 283 281 279 278 278 279 277 276 274 271 269 265 262 263 265 267 267 267 266 266 267 270 272 274 274 274 273 270 265 261 259 258 257
275 271 268 267 270 270 257 251 265 279 282 276 267 267 268 267 267 268 276 283 284 286 286 286 287 287 287 287 287 286 284 283 281 279 279 279 278 276 273 271 269 265 265 266 270 272 271 272 271 273 274 276 278 280 282 282 280 275 269 264 262 259
277 274 273 270 270 267 252 245 256 271 276 273 264 264 267 267 269 271 281 290 290 291 291 291 291 289 289 289 288 288 286 285 282 279 277 277 277 277 276 274 272 269 268 267 269 272 273 274 274 276 278 279 280 281 283 285 285 282 276 270 265 261
278 273 277 279 274 267 253 245 250 264 270 270 265 264 265 268 274 276 283 293 294 293 292 290 290 289 288 287 288 289 288 288 286 284 282 280 279 279 278 278 277 275 273 270 269 270 272 273 274 275 277 280 282 281 281 283 285 285 282 276 271 266
Height
5819 5820 5820 5820 5820 5820 5820 5820 5819 5819 5819 5819 5819 5819 5819 5819 5818 5817 5817 5818 5817 5817 5817 5818 5819 5819 5819 5819 5819 5819 5819 5820 5820 5821 5822 5823 5823 5824 5824 5825 5826 5827 5828 5829 5829 5829 5830 5831 5831 5831 5833 5834 5835 5836 5838 5840 5842 5843 5844 5845 5845 5845
5817 5818 5817 5817 5818 5818 5818 5817 5817 5817 5817 5817 5817 5817 5817 5816 5815 5815 5815 5815 5815 5815 5815 5816 5816 5816 5817 5817 5817 5818 5818 5818 5819 5819 5820 5821 5821 5822 5822 5823 5824 5826 5827 5827 5827 5827 5828 5829 5829 5829 5830 5832 5833 5834 5835 5838 5840 5842 5843 5843 5843 5844
5814 5815 5815 5815 5815 5815 5815 5815 5815 5815 5815 5815 5815 5815 5814 5814 5813 5813 5812 5812 5813 5812 5813 5813 5814 5814 5815 5815 5816 5816 5816 5816 5817 5817 5818 5819 5819 5820 5821 5821 5823 5824 5824 5825 5825 5826 5826 5827 5828 5828 5829 5830 5831 5831 5832 5835 5838 5840 5841 5841 5842 5842
5811 5812 5812 5812 5812 5813 5813 5813 5813 5813 5814 5813 5813 5812 5812 5812 5812 5811 5810 5810 5811 5810 5811 5811 5812 5812 5813 5813 5813 5814 5815 5815 5815 5816 5816 5817 5818 5819 5819 5820 5821 5822 5822 5823 5823 5824 5825 5825 5826 5827 5827 5828 5828 5828 5829 5833 5836 5838 5839 5839 5840 5840
5808 5809 5810 5810 5810 5811 5811 5811 5811 5811 5811 5811 5811 5810 5810 5810 5810 5809 5809 5809 5809 5809 5809 5809 5810 5811 5811 5811 5811 5812 5813 5814 5814 5814 5815 5816 5817 5817 5818 5818 5819 5820 5820 5821 5822 5823 5823 5824 5824 5825 5826 5826 5826 5826 5827 5830 5833 5836 5837 5837 5837 5837
5805 5807 5808 5808 5808 5808 5809 5809 5809 5809 5809 5809 5809 5808 5808 5808 5808 5807 5807 5808 5808 5807 5807 5808 5808 5809 5809 5809 5810 5810 5811 5812 5813 5813 5814 5814 5815 5816 5816 5816 5817 5818 5818 5819 5820 5821 5821 5822 5822 5823 5823 5824 5824 5824 5824 5827 5830 5833 5834 5835 5835 5835
5803 5805 5805 5805 5805 5805 5806 5807 5807 5806 5806 5806 5807 5806 5805 5805 5805 5806 5805 5805 5805 5805 5806 5806 5807 5807 5807 5808 5808 5809 5810 5811 5812 5812 5813 5813 5814 5814 5815 5815 5815 5816 5817 5817 5818 5819 5819 5820 5820 5821 5821 5822 5821 5821 5822 5824 5827 5830 5832 5832 5833 5834
5800 5802 5803 5803 5802 5802 5804 5804 5804 5804 5803 5804 5804 5804 5803 5802 5803 5804 5803 5802 5802 5803 5803 5804 5804 5804 5805 5806 5806 5807 5809 5810 5810 5811 5812 5812 5812 5812 5813 5813 5814 5814 5815 5815 5816 5817 5817 5818 5819 5819 5820 5820 5819 5819 5820 5822 5824 5827 5829 5829 5830 5831
5798 5800 5800 5800 5800 5800 5801 5801 5801 5801 5801 5801 5801 5801 5800 5800 5800 5801 5800 5799 5799 5800 5801 5802 5801 5800 5801 5803 5804 5805 5807 5808 5809 5810 5810 5811 5811 5811 5811 5811 5812 5813 5813 5814 5814 5814 5815 5815 5816 5817 5818 5818 5817 5817 5818 5819 5822 5824 5825 5826 5827 5828
5797 5798 5798 5798 5797 5797 5798 5799 5799 5798 5798 5798 5798 5799 5798 5797 5797 5798 5798 5796 5796 5798 5799 5800 5799 5798 5799 5801 5802 5804 5805 5806 5807 5808 5808 5809 5810 5810 5810 5810 5811 5812 5812 5812 5812 5812 5812 5813 5814 5815 5815 5815 5815 5815 5815 5817 5819 5821 5822 5823 5825 5826
5796 5796 5796 5796 5795 5794 5795 5796 5797 5797 5797 5796 5796 5796 5796 5795 5795 5796 5796 5794 5795 5797 5797 5798 5798 5798 5799 5800 5801 5803 5804 5805 5805 5806 5807 5808 5809 5809 5809 5810 5810 5811 5811 5811 5811 5810 5810 5811 5812 5812 5813 5813 5813 5814 5814 5815 5816 5818 5819 5821 5823 5825
5794 5794 5794 5793 5792 5792 5792 5793 5793 5794 5795 5794 5794 5794 5794 5793 5793 5794 5793 5792 5794 5794 5793 5794 5796 5797 5798 5799 5800 5802 5803 5803 5804 5805 5806 5807 5807 5807 5808 5808 5809 5809 5810 5809 5809 5809 5809 5809 5810 5810 5811 5811 5812 5812 5812 5812 5814 5816 5817 5819 5821 5823
5792 5792 5792 5792 5791 5791 5790 5789 5789 5790 5791 5792 5792 5792 5792 5791 5791 5791 5791 5792 5792 5791 5790 5792 5794 5796 5798 5799 5799 5800 5801 5802 5803 5804 5805 5805 5805 5806 5806 5806 5806 5807 5808 5808 5807 5807 5807 5808 5808 5808 5809 5809 5810 5810 5811 5810 5811 5813 5815 5817 5819 5821
5787 5789 5789 5789 5790 5790 5790 5789 5788 5788 5788 5789 5790 5790 5790 5789 5789 5789 5789 5790 5790 5790 5790 5790 5793 5795 5797 5797 5798 5799 5800 5801 5802 5802 5802 5802 5803 5803 5803 5803 5804 5804 5805 5805 5806 5805 5806 5806 5805 5806 5807 5807 5808 5808 5809 5809 5809 5810 5812 5815 5816 5818
5783 5784 5785 5785 5786 5787 5788 5788 5787 5787 5786 5787 5787 5787 5787 5787 5787 5787 5787 5788 5789 5789 5789 5789 5790 5791 5793 5794 5795 5796 5798 5798 5799 5799 5800 5800 5800 5800 5801 5801 5801 5801 5802 5802 5803 5804 5804 5804 5804 5804 5805 5805 5806 5806 5806 5807 5807 5808 5809 5811 5814 5815
5783 5783 5783 5783 5783 5784 5785 5786 5786 5786 5784 5784 5784 5783 5784 5784 5784 5784 5785 5785 5786 5787 5788 5787 5786 5787 5788 5791 5792 5794 5795 5796 5796 5796 5796 5797 5797 5798 5798 5798 5799 5799 5799 5800 5801 5801 5802 5802 5802 5803 5803 5804 5804 5804 5804 5804 5805 5806 5807 5808 5810 5812
5783 5782 5782 5782 5782 5782 5783 5783 5784 5785 5784 5783 5782 5781 5781 5780 5781 5781 5782 5783 5783 5784 5785 5785 5785 5786 5788 5789 5790 5792 5792 5793 5793 5794 5794 5794 5795 5795 5796 5796 5797 5797 5797 5798 5798 5799 5799 5800 5800 5801 5801 5802 5802 5802 5802 5802 5803 5803 5805 5806 5807 5809
5782 5782 5782 5781 5780 5780 5781 5781 5781 5782 5783 5783 5782 5781 5780 5779 5778 5779 5780 5781 5782 5782 5783 5783 5783 5785 5787 5788 5789 5790 5791 5791 5792 5792 5793 5793 5793 5794 5794 5795 5795 5795 5795 5796 5796 5796 5797 5798 5798 5798 5799 5799 5799 5799 5799 5800 5801 5802 5802 5804 5805 5806
5781 5782 5781 5780 5779 5779 5778 5779 5779 5779 5780 5781 5781 5781 5780 5779 5778 5778 5778 5778 5779 5779 5780 5780 5780 5781 5783 5785 5787 5788 5789 5789 5790 5790 5791 5791 5792 5792 5793 5793 5793 5793 5794 5794 5794 5794 5795 5795 5796 5796 5796 5796 5796 5797 5797 5797 5799 5800 5800 5801 5802 5803
5780 5780 5780 5779 5778 5778 5777 5776 5776 5776 5776 5777 5778 5778 5778 5778 5777 5777 5776 5776 5776 5776 5776 5777 5778 5779 5780 5783 5784 5785 5786 5787 5787 5788 5789 5789 5790 5790 5790 5791 5791 5791 5792 5792 5792 5792 5792 5793 5794 5794 5794 5794 5794 5794 5795 5795 5796 5797 5798 5799 5800 5800
5779 5779 5779 5779 5778 5777 5776 5775 5774 5774 5773 5773 5775 5775 5775 5775 5775 5775 5774 5774 5774 5774 5775 5775 5776 5777 5779 5780 5782 5783 5784 5785 5785 5786 5786 5786 5787 5787 5788 5788 5789 5789 5789 5789 5789 5790 5790 5791 5792 5792 5792 5792 5791 5792 5792 5793 5794 5795 5795 5796 5797 5797
5777 5778 5778 5777 5776 5775 5775 5774 5773 5773 5772 5772 5772 5773 5773 5773 5773 5773 5773 5773 5773 5773 5773 5773 5774 5775 5776 5778 5779 5780 5781 5782 5782 5783 5783 5784 5784 5785 5785 5786 5786 5786 5787 5787 5787 5788 5788 5789 5789 5790 5790 5790 5790 5790 5790 5791 5792 5792 5792 5793 5793 5794
5775 5776 5775 5775 5774 5773 5773 5773 5772 5772 5772 5771 5771 5771 5771 5771 5771 5771 5771 5771 5771 5772 5772 5772 5772 5773 5774 5775 5776 5777 5778 5778 5779 5780 5781 5781 5781 5782 5783 5783 5784 5784 5784 5784 5785 5785 5785 5786 5787 5787 5787 5788 5788 5788 5788 5789 5789 5789 5790 5790 5790 5790
5773 5773 5773 5772 5771 5771 5771 5771 5770 5770 5770 5770 5769 5769 5769 5769 5769 5770 5770 5770 5770 5770 5770 5770 5771 5771 5772 5772 5773 5774 5775 5775 5776 5776 5777 5778 5778 5779 5780 5780 5781 5781 5781 5781 5782 5782 5783 5784 5784 5785 5785 5785 5785 5785 5785 5786 5786 5786 5787 5787 5787 5787
5770 5770 5770 5769 5769 5769 5769 5769 5768 5767 5768 5768 5767 5768 5768 5767 5767 5767 5768 5768 5768 5768 5768 5768 5769 5769 5770 5770 5771 5771 5772 5772 5773 5773 5774 5775 5776 5776 5777 5777 5778 5778 5779 5779 5779 5780 5780 5781 5781 5781 5782 5782 5782 5782 5782 5783 5783 5783 5784 5784 5784 5785
5766 5767 5768 5767 5766 5767 5767 5767 5766 5765 5765 5765 5765 5765 5766 5765 5765 5765 5765 5766 5766 5766 5766 5766 5767 5767 5768 5768 5768 5769 5769 5770 5770 5771 5771 5772 5773 5774 5774 5774 5775 5775 5776 5777 5777 5777 5777 5778 5778 5778 5779 5779 5779 5779 5779 5779 5779 5779 5780 5780 5781 5781
5764 5765 5765 5765 5764 5764 5765 5766 5765 5764 5763 5763 5763 5762 5763 5763 5763 5763 5763 5763 5764 5764 5764 5764 5764 5765 5765 5766 5766 5766 5767 5767 5768 5768 5768 5769 5770 5771 5771 5772 5772 5773 5773 5774 5774 5775 5775 5775 5775 5775 5776 5776 5776 5777 5777 5776 5776 5776 5776 5777 5777 5777
5761 5762 5762 5762 5762 5762 5763 5764 5763 5762 5761 5761 5760 5760 5760 5760 5760 5761 5761 5761 5761 5761 5761 5762 5762 5762 5763 5763 5764 5764 5764 5765 5765 5765 5766 5767 5767 5768 5769 5769 5770 5770 5771 5771 5771 5772 5772 5772 5772 5772 5772 5773 5773 5773 5774 5773 5773 5773 5773 5773 5773 5774
5759 5759 5759 5759 5759 5760 5761 5762 5762 5761 5760 5759 5759 5758 5758 5758 5758 5758 5758 5758 5759 5759 5759 5759 5759 5760 5760 5761 5761 5761 5762 5762 5763 5763 5764 5764 5765 5765 5766 5766 5767 5767 5768 5768 5768 5769 5769 5769 5768 5769 5769 5769 5769 5770 5770 5770 5770 5770 5770 5770 5770 5770
5756 5755 5755 5755 5756 5757 5759 5760 5761 5760 5758 5757 5757 5756 5756 5755 5755 5755 5756 5756 5756 5756 5757 5757 5757 5757 5758 5758 5759 5759 5759 5760 5760 5760 5761 5762 5762 5763 5764 5764 5764 5765 5765 5765 5765 5766 5766 5766 5766 5766 5766 5766 5766 5766 5766 5767 5767 5767 5767 5767 5767 5767
5753 5753 5752 5752 5753 5754 5756 5758 5759 5759 5757 5756 5755 5754 5753 5753 5753 5753 5753 5753 5754 5754 5754 5755 5755 5755 5756 5756 5756 5757 5757 5757 5758 5758 5759 5759 5760 5760 5761 5761 5762 5762 5762 5762 5762 5762 5763 5763 5763 5763 5763 5763 5763 5764 5764 5764 5764 5764 5764 5764 5764 5764
5752 5752 5751 5750 5751 5751 5752 5754 5755 5756 5755 5754 5753 5752 5752 5751 5750 5750 5751 5751 5751 5752 5752 5752 5753 5753 5753 5754 5754 5755 5755 5755 5756 5756 5756 5757 5757 5758 5758 5759 5759 5759 5759 5759 5759 5759 5760 5760 5760 5760 5760 5760 5760 5761 5761 5761 5761 5761 5761 5761 5761 5761
5749 5748 5748 5747 5747 5747 5748 5750 5751 5752 5753 5752 5751 5750 5750 5750 5749 5748 5748 5749 5749 5749 5750 5750 5750 5751 5751 5751 5752 5752 5753 5753 5754 5754 5754 5754 5755 5755 5756 5756 5756 5756 5757 5757 5757 5757 5757 5757 5757 5757 5757 5757 5758 5758 5758 5758 5758 5758 5758 5758 5758 5759
5745 5744 5743 5743 5743 5743 5744 5746 5748 5749 5750 5750 5750 5749 5748 5748 5748 5747 5747 5747 5747 5748 5748 5748 5748 5749 5749 5749 5750 5750 5750 5751 5751 5751 5752 5752 5752 5753 5753 5754 5754 5754 5754 5754 5755 5755 5755 5755 5755 5755 5755 5755 5755 5756 5756 5756 5756 5756 5756 5756 5756 5756
5740 5741 5740 5740 5740 5741 5742 5742 5744 5746 5747 5748 5748 5747 5747 5747 5747 5746 5745 5746 5746 5746 5746 5746 5746 5747 5747 5747 5748 5748 5748 5749 5749 5749 5749 5750 5750 5750 5751 5751 5752 5752 5752 5753 5753 5753 5753 5753 5753 5753 5753 5753 5753 5753 5754 5754 5754 5754 5754 5754 5754 5754
5737 5738 5738 5738 5738 5739 5739 5738 5740 5743 5744 5746 5747 5746 5746 5746 5745 5745 5744 5744 5744 5745 5745 5745 5745 5745 5745 5746 5746 5746 5747 5747 5747 5747 5748 5748 5748 5749 5749 5749 5750 5750 5751 5751 5751 5751 5751 5751 5751 5751 5751 5751 5751 5752 5752 5752 5752 5753 5753 5753 5753 5753
5733 5735 5735 5735 5735 5736 5736 5736 5737 5739 5741 5743 5744 5744 5745 5744 5744 5744 5743 5743 5743 5743 5743 5743 5743 5743 5743 5744 5744 5744 5745 5745 5745 5746 5746 5746 5747 5747 5747 5747 5748 5748 5749 5749 5749 5750 5750 5750 5750 5750 5749 5749 5750 5750 5750 5750 5750 5751 5751 5751 5752 5752